Niagara Falls, NY

11:16 PM EDT on September 18, 2019 (GMT -0400)
Niagara Falls International

Weather History for KIAG - August, 2019

Change the Weather History Date:

Saturday, August 24, 2019

  Actual Average Record
Temperature  
Mean Temperature 62 °F -  
Max Temperature 72 °F 77 °F 89 °F (2007)
Min Temperature 54 °F 57 °F 48 °F (1997)
Degree Days  
Heating Degree Days 3    
Growing Degree Days 12 (Base 50)    
Moisture  
Dew Point 51 °F    
Average Humidity 67    
Maximum Humidity 83    
Minimum Humidity 51    
Precipitation  
Precipitation 0.00 in - - ()
Sea Level Pressure  
Sea Level Pressure 30.27 in    
Wind  
Wind Speed 5 mph ()    
Max Wind Speed 12 mph    
Max Gust Speed 22 mph    
Visibility 10.0 miles    
Events      
Averages and records for this station are not official NWS values.
T = Trace of Precipitation, MM = Missing Value Source: Averaged Metar Reports

Daily Weather History Graph

Daily Weather History Graph

Search for Another Location

Airport or City:

Astronomy

Aug. 24, 2019 Rise Set
Actual Time 6:31 AM EDT 8:04 PM EDT
Civil Twilight 6:01 AM EDT 8:34 PM EDT
Nautical Twilight 5:24 AM EDT 9:10 PM EDT
Astronomical Twilight 4:46 AM EDT 9:48 PM EDT
Moon 12:19 AM EDT (8/24) 3:22 PM EDT (8/24)
Length of Visible Light 14h 33m
Length of Day
13h 33m
Last Quarter, 39% of the Moon is Illuminated
Aug 24
Last Quarter
Aug 30
New
Sep 5
First Quarter
Sep 14
Full
Sep 21
Last Quarter

Hourly Weather History & Observations

Time (EDT) Temp. Dew Point Humidity Pressure Visibility Wind Dir Wind Speed Gust Speed Precip Events Conditions
12:53 AM 60.1 °F 50.0 °F 69% 30.21 in 10.0 mi North 3.5 mph - N/A   Partly Cloudy
1:53 AM 59.0 °F 50.0 °F 72% 30.21 in 10.0 mi North 4.6 mph - N/A   Mostly Cloudy
2:53 AM 57.9 °F 50.0 °F 75% 30.21 in 10.0 mi NNE 4.6 mph - N/A   Overcast
3:53 AM 57.9 °F 51.1 °F 78% 30.22 in 10.0 mi NE 4.6 mph - N/A   Overcast
4:53 AM 57.0 °F 50.0 °F 77% 30.22 in 10.0 mi NNE 5.8 mph - N/A   Mostly Cloudy
5:53 AM 55.0 °F 50.0 °F 83% 30.24 in 10.0 mi NNE 5.8 mph - N/A   Clear
6:53 AM 54.0 °F 48.9 °F 83% 30.27 in 10.0 mi NNE 5.8 mph - N/A   Clear
7:53 AM 60.1 °F 53.1 °F 78% 30.29 in 10.0 mi NE 5.8 mph - N/A   Clear
8:53 AM 64.0 °F 53.1 °F 67% 30.29 in 10.0 mi NE 8.1 mph - N/A   Clear
9:53 AM 64.9 °F 52.0 °F 63% 30.30 in 10.0 mi NE 10.4 mph - N/A   Mostly Cloudy
10:53 AM 66.9 °F 54.0 °F 63% 30.30 in 10.0 mi North 6.9 mph - N/A   Overcast
11:53 AM 66.9 °F 53.1 °F 61% 30.29 in 10.0 mi ENE 4.6 mph - N/A   Mostly Cloudy
1:53 PM 69.1 °F 52.0 °F 54% 30.27 in 10.0 mi NNE 11.5 mph 18.4 mph N/A   Scattered Clouds
2:53 PM 70.0 °F 51.1 °F 51% 30.27 in 10.0 mi North 10.4 mph 21.9 mph N/A   Partly Cloudy
3:53 PM 70.0 °F 51.1 °F 51% 30.26 in 10.0 mi ENE 9.2 mph - N/A   Scattered Clouds
4:53 PM 70.0 °F 52.0 °F 53% 30.26 in 10.0 mi NNE 8.1 mph - N/A   Mostly Cloudy
5:53 PM 69.1 °F 51.1 °F 53% 30.27 in 10.0 mi ENE 10.4 mph - N/A   Mostly Cloudy
6:53 PM 69.1 °F 51.1 °F 53% 30.27 in 10.0 mi East 11.5 mph - N/A   Overcast
7:53 PM 66.0 °F 52.0 °F 60% 30.27 in 10.0 mi East 3.5 mph - N/A   Clear
8:53 PM 63.0 °F 52.0 °F 67% 30.28 in 10.0 mi East 3.5 mph - N/A   Clear
9:53 PM 59.0 °F 52.0 °F 78% 30.30 in 10.0 mi ESE 5.8 mph - N/A   Clear
10:53 PM 59.0 °F 52.0 °F 78% 30.30 in 10.0 mi East 3.5 mph - N/A   Clear
11:53 PM 57.9 °F 52.0 °F 81% 30.30 in 10.0 mi NE 3.5 mph - N/A   Clear